Station Historical Data
Daily Summary for January 25, 2012 Units:  Metric    English   Both
« Previous Day
Next Day »
Daily Weekly Monthly Yearly Custom
  High: Low: Average:
Temperature: 20.2 °C 5.8 °C 12.4 °C
Dew Point: 12.3 °C 1 °C 6.2 °C
Humidity: 78% 51% 66%
Wind Speed: 22.5km/h 0km/h 8.2km/h
Wind Gust: 25.7km/h - -
Wind- - East
Pressure: 1024.6 hPa 1013.4 hPa -
Precipitation: 0 mm    
Historical Graphs
 
 
Tabular Data for January 25, 2012
Time Temperature Dew Point Pressure Wind Wind Speed Wind Gust Humidity Rainfall Rate (Hourly) Conditions
00:00 7.5 °C 1.8 °C 1024.6 hPa ENE 1.6 km/h 4.8 km/h 67% 0 mm
00:05 7.4 °C 1.7 °C 1024.3 hPa NE 4.8 km/h 8 km/h 67% 0 mm
00:10 7.3 °C 1.8 °C 1024.3 hPa NNE 3.2 km/h 4.8 km/h 68% 0 mm
00:16 7.1 °C 1.6 °C 1024.3 hPa NE 3.2 km/h 6.4 km/h 68% 0 mm
00:21 6.9 °C 1.7 °C 1024.3 hPa NE 3.2 km/h 6.4 km/h 69% 0 mm
00:26 6.9 °C 1.6 °C 1024.3 hPa NNE 4.8 km/h 6.4 km/h 69% 0 mm
00:31 6.9 °C 1.6 °C 1024.3 hPa NE 8 km/h 8 km/h 69% 0 mm
00:36 6.8 °C 1.6 °C 1024.3 hPa NNE 6.4 km/h 6.4 km/h 69% 0 mm
00:41 6.8 °C 1.6 °C 1023.9 hPa NNE 9.7 km/h 9.7 km/h 69% 0 mm
00:46 6.9 °C 1.7 °C 1023.9 hPa NE 9.7 km/h 9.7 km/h 69% 0 mm
00:51 7.1 °C 1.8 °C 1023.9 hPa NE 6.4 km/h 14.5 km/h 69% 0 mm
00:56 7 °C 1.7 °C 1023.6 hPa NNE 9.7 km/h 12.9 km/h 69% 0 mm
01:01 7 °C 1.7 °C 1023.6 hPa ENE 8 km/h 12.9 km/h 69% 0 mm
01:06 7 °C 1.7 °C 1023.6 hPa NE 9.7 km/h 12.9 km/h 69% 0 mm
01:11 7.1 °C 1.6 °C 1023.6 hPa NNE 4.8 km/h 14.5 km/h 68% 0 mm
01:16 7 °C 1.7 °C 1023.6 hPa ENE 6.4 km/h 12.9 km/h 69% 0 mm
01:21 6.9 °C 1.7 °C 1023.2 hPa NE 12.9 km/h 12.9 km/h 69% 0 mm
01:26 7.1 °C 1.6 °C 1022.9 hPa NNE 12.9 km/h 12.9 km/h 68% 0 mm
01:31 7 °C 1.5 °C 1022.9 hPa NNE 11.3 km/h 17.7 km/h 68% 0 mm
01:36 6.9 °C 1.6 °C 1023.2 hPa NE 9.7 km/h 11.3 km/h 69% 0 mm
01:41 6.9 °C 1.4 °C 1023.2 hPa NE 4.8 km/h 9.7 km/h 68% 0 mm
01:46 6.9 °C 1.4 °C 1022.9 hPa NE 4.8 km/h 11.3 km/h 68% 0 mm
01:51 6.8 °C 1.6 °C 1022.9 hPa NE 8 km/h 9.7 km/h 69% 0 mm
01:56 6.8 °C 1.3 °C 1022.9 hPa NE 6.4 km/h 12.9 km/h 68% 0 mm
02:01 6.8 °C 1.3 °C 1022.9 hPa NE 6.4 km/h 11.3 km/h 68% 0 mm
02:06 6.7 °C 1.4 °C 1022.9 hPa NNE 6.4 km/h 12.9 km/h 69% 0 mm
02:11 6.7 °C 1.4 °C 1022.9 hPa NE 6.4 km/h 9.7 km/h 69% 0 mm
02:16 6.6 °C 1.3 °C 1022.9 hPa NNE 6.4 km/h 12.9 km/h 69% 0 mm
02:21 6.6 °C 1.3 °C 1022.6 hPa NNE 4.8 km/h 11.3 km/h 69% 0 mm
02:26 6.5 °C 1.4 °C 1022.6 hPa NE 4.8 km/h 9.7 km/h 70% 0 mm
02:31 6.5 °C 1.4 °C 1022.6 hPa NE 6.4 km/h 11.3 km/h 70% 0 mm
02:36 6.5 °C 1.4 °C 1022.6 hPa NNE 4.8 km/h 9.7 km/h 70% 0 mm
02:42 6.7 °C 1.4 °C 1022.9 hPa ENE 1.6 km/h 8 km/h 69% 0 mm
02:47 6.7 °C 1.4 °C 1022.6 hPa NE 6.4 km/h 6.4 km/h 69% 0 mm
02:52 6.7 °C 1.2 °C 1022.6 hPa ENE 8 km/h 9.7 km/h 68% 0 mm
02:57 6.8 °C 1.3 °C 1022.6 hPa NE 4.8 km/h 9.7 km/h 68% 0 mm
03:02 6.7 °C 1.2 °C 1022.6 hPa NE 12.9 km/h 12.9 km/h 68% 0 mm
03:07 6.7 °C 1.2 °C 1022.6 hPa NE 9.7 km/h 12.9 km/h 68% 0 mm
03:12 6.6 °C 1.3 °C 1022.6 hPa NE 6.4 km/h 11.3 km/h 69% 0 mm
03:17 6.6 °C 1.3 °C 1022.6 hPa ENE 8 km/h 9.7 km/h 69% 0 mm
03:22 6.5 °C 1.2 °C 1022.2 hPa NE 11.3 km/h 14.5 km/h 69% 0 mm
03:27 6.4 °C 1.2 °C 1022.2 hPa NE 6.4 km/h 11.3 km/h 69% 0 mm
03:32 6.3 °C 1.1 °C 1022.2 hPa NE 6.4 km/h 12.9 km/h 69% 0 mm
03:37 6.2 °C 1.2 °C 1022.2 hPa ENE 3.2 km/h 8 km/h 70% 0 mm
03:42 6.2 °C 1.1 °C 1022.2 hPa NE 8 km/h 12.9 km/h 70% 0 mm
03:47 6.2 °C 1.1 °C 1022.2 hPa ENE 8 km/h 11.3 km/h 70% 0 mm
03:52 6.2 °C 1.1 °C 1022.2 hPa NE 9.7 km/h 9.7 km/h 70% 0 mm
03:57 6.2 °C 1.1 °C 1022.2 hPa NE 9.7 km/h 9.7 km/h 70% 0 mm
04:02 6.1 °C 1 °C 1022.2 hPa NE 4.8 km/h 9.7 km/h 70% 0 mm
04:07 5.9 °C 1.1 °C 1021.9 hPa NE 8 km/h 9.7 km/h 71% 0 mm
04:12 5.8 °C 1.2 °C 1021.9 hPa ENE 6.4 km/h 8 km/h 72% 0 mm
04:17 5.9 °C 1.1 °C 1021.9 hPa NE 3.2 km/h 11.3 km/h 71% 0 mm
04:22 5.9 °C 1.2 °C 1021.9 hPa NE 6.4 km/h 9.7 km/h 72% 0 mm
04:27 5.9 °C 1.2 °C 1021.9 hPa NE 8 km/h 9.7 km/h 72% 0 mm
04:32 5.9 °C 1.2 °C 1021.9 hPa NE 9.7 km/h 9.7 km/h 72% 0 mm
04:37 5.9 °C 1.4 °C 1021.9 hPa NE 8 km/h 8 km/h 73% 0 mm
04:42 5.9 °C 1.3 °C 1021.9 hPa NE 9.7 km/h 9.7 km/h 72% 0 mm
04:47 6 °C 1.3 °C 1021.6 hPa NE 4.8 km/h 9.7 km/h 72% 0 mm
04:52 6 °C 1.3 °C 1021.9 hPa NE 4.8 km/h 8 km/h 72% 0 mm
04:57 6 °C 1.3 °C 1021.9 hPa NE 6.4 km/h 9.7 km/h 72% 0 mm
05:02 6 °C 1.3 °C 1021.9 hPa NE 4.8 km/h 9.7 km/h 72% 0 mm
05:07 6 °C 1.6 °C 1021.9 hPa NNE 3.2 km/h 9.7 km/h 73% 0 mm
05:12 6.1 °C 1.6 °C 1021.9 hPa NE 12.9 km/h 12.9 km/h 73% 0 mm
05:17 6.1 °C 1.6 °C 1021.6 hPa NE 9.7 km/h 12.9 km/h 73% 0 mm
05:22 6.1 °C 1.4 °C 1021.2 hPa NE 6.4 km/h 14.5 km/h 72% 0 mm
05:27 6.2 °C 1.5 °C 1021.2 hPa ENE 9.7 km/h 14.5 km/h 72% 0 mm
05:32 6.3 °C 1.8 °C 1021.2 hPa ENE 4.8 km/h 14.5 km/h 73% 0 mm
05:37 6.3 °C 1.8 °C 1021.2 hPa NNE 9.7 km/h 12.9 km/h 73% 0 mm
05:42 6.3 °C 1.8 °C 1021.6 hPa ENE 3.2 km/h 6.4 km/h 73% 0 mm
05:47 6.3 °C 1.8 °C 1021.9 hPa North 1.6 km/h 3.2 km/h 73% 0 mm
05:52 6.3 °C 1.7 °C 1021.9 hPa NNW 1.6 km/h 4.8 km/h 72% 0 mm
05:57 6.3 °C 1.8 °C 1021.9 hPa NNW 1.6 km/h 3.2 km/h 73% 0 mm
06:02 6.3 °C 1.8 °C 1022.2 hPa Calm   1.6 km/h 73% 0 mm
06:08 6.3 °C 1.8 °C 1022.2 hPa Calm   1.6 km/h 73% 0 mm
06:13 6.3 °C 1.8 °C 1022.6 hPa SSW 3.2 km/h 3.2 km/h 73% 0 mm
06:18 6.2 °C 1.9 °C 1022.6 hPa ESE 1.6 km/h 1.6 km/h 74% 0 mm
06:23 6.2 °C 2.3 °C 1022.2 hPa NE 3.2 km/h 4.8 km/h 76% 0 mm
06:28 6.1 °C 2.2 °C 1022.2 hPa NE 1.6 km/h 6.4 km/h 76% 0 mm
06:33 6.2 °C 2.3 °C 1022.2 hPa ENE 3.2 km/h 3.2 km/h 76% 0 mm
06:38 6.4 °C 1.9 °C 1022.6 hPa NE 3.2 km/h 4.8 km/h 73% 0 mm
06:43 6.6 °C 2.1 °C 1022.2 hPa NNE 4.8 km/h 8 km/h 73% 0 mm
06:48 6.6 °C 2.3 °C 1022.2 hPa NNE 3.2 km/h 4.8 km/h 74% 0 mm
06:53 6.6 °C 2.3 °C 1022.2 hPa NE 4.8 km/h 4.8 km/h 74% 0 mm
06:58 6.8 °C 1.9 °C 1022.2 hPa NE 3.2 km/h 8 km/h 71% 0 mm
07:03 6.9 °C 2 °C 1022.6 hPa NE 1.6 km/h 4.8 km/h 71% 0 mm
07:08 6.9 °C 2.2 °C 1022.9 hPa SSE 4.8 km/h 4.8 km/h 72% 0 mm
07:13 6.8 °C 2.5 °C 1022.9 hPa SSE 1.6 km/h 3.2 km/h 74% 0 mm
07:18 6.7 °C 2.8 °C 1022.9 hPa SE 1.6 km/h 4.8 km/h 76% 0 mm
07:23 6.7 °C 2.4 °C 1022.9 hPa East 3.2 km/h 3.2 km/h 74% 0 mm
07:28 6.7 °C 2.9 °C 1022.6 hPa Calm   3.2 km/h 77% 0 mm
07:33 6.6 °C 3.1 °C 1022.6 hPa East 3.2 km/h 3.2 km/h 78% 0 mm
07:38 6.6 °C 2.8 °C 1022.2 hPa NE 6.4 km/h 6.4 km/h 77% 0 mm
07:43 6.6 °C 2.7 °C 1021.9 hPa NE 4.8 km/h 6.4 km/h 76% 0 mm
07:48 6.6 °C 2.7 °C 1021.9 hPa East 4.8 km/h 9.7 km/h 76% 0 mm
07:53 6.7 °C 2.6 °C 1022.2 hPa East 4.8 km/h 9.7 km/h 75% 0 mm
07:58 6.6 °C 2.5 °C 1021.9 hPa ESE 4.8 km/h 9.7 km/h 75% 0 mm
08:03 6.6 °C 2.5 °C 1021.9 hPa NE 6.4 km/h 8 km/h 75% 0 mm
08:08 6.6 °C 2.3 °C 1021.6 hPa NE 4.8 km/h 9.7 km/h 74% 0 mm
08:13 6.7 °C 2.4 °C 1021.6 hPa NE 9.7 km/h 14.5 km/h 74% 0 mm
08:18 6.7 °C 2.4 °C 1021.2 hPa NNE 6.4 km/h 8 km/h 74% 0 mm
08:23 6.7 °C 2.6 °C 1021.2 hPa ENE 4.8 km/h 9.7 km/h 75% 0 mm
08:28 6.8 °C 2.5 °C 1020.9 hPa ENE 4.8 km/h 12.9 km/h 74% 0 mm
08:33 6.9 °C 2.6 °C 1021.2 hPa ESE 9.7 km/h 12.9 km/h 74% 0 mm
08:38 7 °C 2.7 °C 1020.9 hPa ENE 4.8 km/h 14.5 km/h 74% 0 mm
08:43 7.1 °C 2.6 °C 1020.9 hPa NE 11.3 km/h 11.3 km/h 73% 0 mm
08:48 7.2 °C 2.7 °C 1020.5 hPa East 11.3 km/h 14.5 km/h 73% 0 mm
08:53 7.3 °C 2.8 °C 1020.5 hPa East 8 km/h 17.7 km/h 73% 0 mm
08:58 7.4 °C 2.7 °C 1020.9 hPa ENE 4.8 km/h 9.7 km/h 72% 0 mm
09:03 7.9 °C 2.9 °C 1020.9 hPa East 8 km/h 14.5 km/h 71% 0 mm
09:09 8.4 °C 3.4 °C 1020.5 hPa ENE 6.4 km/h 16.1 km/h 71% 0 mm
09:14 8.6 °C 3.2 °C 1020.5 hPa East 11.3 km/h 17.7 km/h 69% 0 mm
09:19 8.8 °C 3.1 °C 1020.5 hPa East 12.9 km/h 14.5 km/h 67% 0 mm
09:24 9.2 °C 3.2 °C 1020.5 hPa ESE 6.4 km/h 17.7 km/h 66% 0 mm
09:29 9.4 °C 3.2 °C 1020.5 hPa East 11.3 km/h 16.1 km/h 65% 0 mm
09:34 9.4 °C 3.4 °C 1020.5 hPa East 11.3 km/h 16.1 km/h 66% 0 mm
09:39 9.6 °C 3.6 °C 1020.5 hPa East 12.9 km/h 14.5 km/h 66% 0 mm
09:44 9.7 °C 3.6 °C 1020.5 hPa ESE 12.9 km/h 14.5 km/h 66% 0 mm
09:49 9.8 °C 3.5 °C 1020.5 hPa East 9.7 km/h 14.5 km/h 65% 0 mm
09:54 9.8 °C 3.1 °C 1020.5 hPa SE 9.7 km/h 19.3 km/h 63% 0 mm
09:59 9.9 °C 3.2 °C 1020.5 hPa ESE 9.7 km/h 14.5 km/h 63% 0 mm
10:04 10.1 °C 3.4 °C 1020.5 hPa SE 9.7 km/h 19.3 km/h 63% 0 mm
10:09 10.2 °C 3.7 °C 1020.5 hPa ESE 14.5 km/h 16.1 km/h 64% 0 mm
10:14 10.2 °C 3.2 °C 1020.2 hPa ESE 8 km/h 22.5 km/h 62% 0 mm
10:19 10.3 °C 3.6 °C 1020.9 hPa ESE 9.7 km/h 17.7 km/h 63% 0 mm
10:24 10.4 °C 3.5 °C 1020.5 hPa ESE 17.7 km/h 17.7 km/h 62% 0 mm
10:29 10.5 °C 3.1 °C 1020.5 hPa ESE 9.7 km/h 20.9 km/h 60% 0 mm
10:34 10.6 °C 3.2 °C 1020.5 hPa East 11.3 km/h 17.7 km/h 60% 0 mm
10:39 10.6 °C 2.9 °C 1020.5 hPa ESE 9.7 km/h 19.3 km/h 59% 0 mm
10:42 10.7 °C 3 °C 1020.5 hPa East 12.9 km/h 17.7 km/h 59% 0 mm
10:47 10.7 °C 3.2 °C 1020.5 hPa East 11.3 km/h 16.1 km/h 60% 0 mm
10:52 10.8 °C 2.8 °C 1020.5 hPa SE 9.7 km/h 17.7 km/h 58% 0 mm
10:57 10.8 °C 3.1 °C 1020.5 hPa ESE 9.7 km/h 19.3 km/h 59% 0 mm
11:02 10.9 °C 2.9 °C 1020.9 hPa ESE 14.5 km/h 16.1 km/h 58% 0 mm
11:07 11 °C 3.1 °C 1020.9 hPa ESE 11.3 km/h 14.5 km/h 58% 0 mm
11:12 11.1 °C 3.2 °C 1020.9 hPa ESE 6.4 km/h 12.9 km/h 58% 0 mm
11:17 11.2 °C 3.3 °C 1020.9 hPa ESE 11.3 km/h 16.1 km/h 58% 0 mm
11:22 11.3 °C 3.6 °C 1020.9 hPa ESE 6.4 km/h 16.1 km/h 59% 0 mm
11:27 11.4 °C 3.2 °C 1020.9 hPa ESE 8 km/h 11.3 km/h 57% 0 mm
11:32 11.5 °C 3.3 °C 1020.5 hPa ESE 6.4 km/h 11.3 km/h 57% 0 mm
11:37 11.5 °C 3.3 °C 1020.5 hPa SE 9.7 km/h 9.7 km/h 57% 0 mm
11:42 11.6 °C 3.6 °C 1020.9 hPa ESE 4.8 km/h 9.7 km/h 58% 0 mm
11:47 11.6 °C 3.9 °C 1020.5 hPa SE 3.2 km/h 6.4 km/h 59% 0 mm
11:52 11.7 °C 3.7 °C 1020.5 hPa ESE 3.2 km/h 4.8 km/h 58% 0 mm
11:57 11.8 °C 4.5 °C 1020.5 hPa Calm   4.8 km/h 61% 0 mm
12:02 11.9 °C 3.7 °C 1020.5 hPa SE 8 km/h 9.7 km/h 57% 0 mm
12:07 12.1 °C 3.6 °C 1020.5 hPa SSE 9.7 km/h 9.7 km/h 56% 0 mm
12:12 12.1 °C 3.6 °C 1020.5 hPa SE 3.2 km/h 6.4 km/h 56% 0 mm
12:17 12.2 °C 3.7 °C 1020.2 hPa SE 1.6 km/h 4.8 km/h 56% 0 mm
12:22 12.3 °C 4.1 °C 1020.2 hPa SE 3.2 km/h 4.8 km/h 57% 0 mm
12:27 12.6 °C 4.8 °C 1020.2 hPa ESE 4.8 km/h 6.4 km/h 59% 0 mm
12:32 12.9 °C 4.1 °C 1019.9 hPa SE 8 km/h 9.7 km/h 55% 0 mm
12:37 13.3 °C 4.4 °C 1019.9 hPa ESE 4.8 km/h 11.3 km/h 55% 0 mm
12:42 13.5 °C 4.1 °C 1019.9 hPa SE 6.4 km/h 8 km/h 53% 0 mm
12:47 13.9 °C 4.6 °C 1019.5 hPa SE 4.8 km/h 9.7 km/h 53% 0 mm
12:52 14.2 °C 5 °C 1019.2 hPa SSE 9.7 km/h 9.7 km/h 54% 0 mm
12:57 14.6 °C 5.1 °C 1019.2 hPa SE 9.7 km/h 16.1 km/h 53% 0 mm
13:02 14.9 °C 4.9 °C 1018.8 hPa SSE 9.7 km/h 16.1 km/h 51% 0 mm
13:07 15.3 °C 5.2 °C 1018.8 hPa SSE 8 km/h 11.3 km/h 51% 0 mm
13:12 15.8 °C 5.7 °C 1018.8 hPa ESE 19.3 km/h 19.3 km/h 51% 0 mm
13:17 16.1 °C 5.9 °C 1018.8 hPa ESE 9.7 km/h 16.1 km/h 51% 0 mm
13:23 16.3 °C 6.7 °C 1018.5 hPa ESE 12.9 km/h 20.9 km/h 53% 0 mm
13:28 16.4 °C 6.6 °C 1018.2 hPa SSE 16.1 km/h 19.3 km/h 52% 0 mm
13:33 16.6 °C 6.7 °C 1018.2 hPa SE 17.7 km/h 22.5 km/h 52% 0 mm
13:38 16.8 °C 6.9 °C 1017.8 hPa East 16.1 km/h 17.7 km/h 52% 0 mm
13:43 17 °C 7.3 °C 1017.8 hPa SE 20.9 km/h 22.5 km/h 53% 0 mm
13:48 17.1 °C 7.2 °C 1017.8 hPa South 11.3 km/h 17.7 km/h 52% 0 mm
13:53 17.2 °C 7.6 °C 1017.8 hPa SE 12.9 km/h 25.7 km/h 53% 0 mm
13:58 17.2 °C 7.6 °C 1017.5 hPa ESE 14.5 km/h 19.3 km/h 53% 0 mm
14:03 17.2 °C 7.6 °C 1017.5 hPa SE 11.3 km/h 19.3 km/h 53% 0 mm
14:08 17.2 °C 7.5 °C 1017.5 hPa ESE 16.1 km/h 19.3 km/h 53% 0 mm
14:13 17.5 °C 7.8 °C 1017.5 hPa SE 22.5 km/h 22.5 km/h 53% 0 mm
14:18 17.5 °C 7.6 °C 1017.5 hPa SE 12.9 km/h 20.9 km/h 52% 0 mm
14:23 17.7 °C 8 °C 1017.5 hPa East 19.3 km/h 19.3 km/h 53% 0 mm
14:28 17.9 °C 7.9 °C 1017.5 hPa SE 14.5 km/h 14.5 km/h 52% 0 mm
14:33 18.1 °C 8.4 °C 1017.2 hPa SE 9.7 km/h 19.3 km/h 53% 0 mm
14:38 18.2 °C 8.5 °C 1017.2 hPa SE 12.9 km/h 17.7 km/h 53% 0 mm
14:43 18.3 °C 8.8 °C 1016.8 hPa SSE 12.9 km/h 19.3 km/h 54% 0 mm
14:48 18.5 °C 9 °C 1016.8 hPa SE 12.9 km/h 12.9 km/h 54% 0 mm
14:53 18.7 °C 9.2 °C 1016.8 hPa SE 9.7 km/h 14.5 km/h 54% 0 mm
14:58 19 °C 9.8 °C 1016.8 hPa SE 14.5 km/h 16.1 km/h 55% 0 mm
15:03 19.2 °C 9.9 °C 1016.5 hPa ESE 11.3 km/h 19.3 km/h 55% 0 mm
15:08 19.3 °C 10.3 °C 1016.5 hPa ESE 14.5 km/h 19.3 km/h 56% 0 mm
15:13 19.3 °C 10.1 °C 1016.5 hPa ESE 19.3 km/h 25.7 km/h 55% 0 mm
15:18 19.2 °C 10.5 °C 1016.5 hPa SE 12.9 km/h 19.3 km/h 57% 0 mm
15:23 19.3 °C 10.3 °C 1016.5 hPa SE 11.3 km/h 20.9 km/h 56% 0 mm
15:29 19.5 °C 10.5 °C 1016.5 hPa SSE 9.7 km/h 19.3 km/h 56% 0 mm
15:34 19.4 °C 10.7 °C 1016.5 hPa ESE 9.7 km/h 19.3 km/h 57% 0 mm
15:39 19.3 °C 10.6 °C 1016.5 hPa SE 8 km/h 19.3 km/h 57% 0 mm
15:44 19.3 °C 11.1 °C 1016.5 hPa SE 3.2 km/h 9.7 km/h 59% 0 mm
15:49 19.6 °C 11.4 °C 1016.5 hPa ESE 6.4 km/h 11.3 km/h 59% 0 mm
15:54 20.1 °C 11 °C 1016.1 hPa ESE 11.3 km/h 14.5 km/h 56% 0 mm
15:59 20.2 °C 11.2 °C 1016.1 hPa ESE 11.3 km/h 17.7 km/h 56% 0 mm
16:04 20.1 °C 11.1 °C 1016.1 hPa East 17.7 km/h 20.9 km/h 56% 0 mm
16:09 19.7 °C 11.2 °C 1016.1 hPa ESE 16.1 km/h 19.3 km/h 58% 0 mm
16:14 19.4 °C 10.9 °C 1015.8 hPa SSE 12.9 km/h 17.7 km/h 58% 0 mm
16:19 19.3 °C 10.8 °C 1015.8 hPa SE 12.9 km/h 16.1 km/h 58% 0 mm
16:24 19.3 °C 11.3 °C 1015.8 hPa SE 6.4 km/h 11.3 km/h 60% 0 mm
16:29 19.3 °C 11.1 °C 1015.8 hPa SE 9.7 km/h 12.9 km/h 59% 0 mm
16:34 19.4 °C 11.2 °C 1015.8 hPa SE 9.7 km/h 12.9 km/h 59% 0 mm
16:39 19.4 °C 11.4 °C 1015.8 hPa SE 11.3 km/h 12.9 km/h 60% 0 mm
16:44 19.4 °C 11.7 °C 1015.5 hPa SE 6.4 km/h 11.3 km/h 61% 0 mm
16:49 19.5 °C 11.8 °C 1015.5 hPa SE 6.4 km/h 9.7 km/h 61% 0 mm
16:54 19.7 °C 11.5 °C 1015.5 hPa SE 9.7 km/h 11.3 km/h 59% 0 mm
17:00 19.9 °C 11.9 °C 1015.5 hPa SE 9.7 km/h 16.1 km/h 60% 0 mm
17:04 19.9 °C 11.7 °C 1015.5 hPa SE 14.5 km/h 14.5 km/h 59% 0 mm
17:10 20 °C 11.8 °C 1015.5 hPa SE 9.7 km/h 12.9 km/h 59% 0 mm
17:15 20 °C 11.8 °C 1015.5 hPa SSE 12.9 km/h 16.1 km/h 59% 0 mm
17:19 20 °C 12 °C 1015.5 hPa SSE 9.7 km/h 12.9 km/h 60% 0 mm
17:25 19.9 °C 12.2 °C 1015.5 hPa SE 14.5 km/h 16.1 km/h 61% 0 mm
17:30 19.6 °C 12.1 °C 1015.5 hPa SE 9.7 km/h 12.9 km/h 62% 0 mm
17:35 19.3 °C 12.1 °C 1015.5 hPa SE 4.8 km/h 11.3 km/h 63% 0 mm
17:40 19.1 °C 12.2 °C 1015.5 hPa SE 6.4 km/h 11.3 km/h 64% 0 mm
17:45 19 °C 12.1 °C 1015.5 hPa SE 6.4 km/h 9.7 km/h 64% 0 mm
17:50 18.9 °C 12.2 °C 1015.5 hPa SE 3.2 km/h 9.7 km/h 65% 0 mm
17:55 18.8 °C 12.1 °C 1015.5 hPa SE 3.2 km/h 4.8 km/h 65% 0 mm
18:00 18.7 °C 12.2 °C 1015.5 hPa SE 4.8 km/h 6.4 km/h 66% 0 mm
18:05 18.5 °C 12.1 °C 1015.5 hPa SE 4.8 km/h 8 km/h 66% 0 mm
18:10 18.2 °C 12 °C 1015.1 hPa SE 3.2 km/h 6.4 km/h 67% 0 mm
18:15 18.2 °C 11.9 °C 1015.1 hPa SSE 3.2 km/h 8 km/h 67% 0 mm
18:20 18.2 °C 11.7 °C 1015.1 hPa SE 3.2 km/h 4.8 km/h 66% 0 mm
18:25 18.3 °C 11.8 °C 1015.1 hPa ESE 4.8 km/h 8 km/h 66% 0 mm
18:30 18.3 °C 11.8 °C 1015.1 hPa SE 8 km/h 8 km/h 66% 0 mm
18:35 18.3 °C 11.8 °C 1015.1 hPa SE 4.8 km/h 6.4 km/h 66% 0 mm
18:40 18.2 °C 11.8 °C 1015.1 hPa East 6.4 km/h 6.4 km/h 66% 0 mm
18:45 18.1 °C 11.9 °C 1015.5 hPa ESE 3.2 km/h 6.4 km/h 67% 0 mm
18:50 18.1 °C 11.8 °C 1015.1 hPa ESE 6.4 km/h 9.7 km/h 67% 0 mm
18:55 17.9 °C 11.9 °C 1015.5 hPa ESE 6.4 km/h 8 km/h 68% 0 mm
19:00 17.9 °C 11.9 °C 1015.1 hPa ESE 6.4 km/h 8 km/h 68% 0 mm
19:06 17.9 °C 11.9 °C 1015.5 hPa ESE 6.4 km/h 8 km/h 68% 0 mm
19:11 17.8 °C 12.1 °C 1015.5 hPa ESE 6.4 km/h 6.4 km/h 69% 0 mm
19:16 17.8 °C 12.2 °C 1015.5 hPa SE 6.4 km/h 8 km/h 70% 0 mm
19:21 17.7 °C 12.2 °C 1015.5 hPa SE 4.8 km/h 9.7 km/h 70% 0 mm
19:26 17.7 °C 12.3 °C 1015.5 hPa ESE 6.4 km/h 9.7 km/h 71% 0 mm
19:31 17.6 °C 12.3 °C 1015.5 hPa East 6.4 km/h 9.7 km/h 71% 0 mm
19:36 17.5 °C 12.2 °C 1015.5 hPa East 3.2 km/h 6.4 km/h 71% 0 mm
19:41 17.4 °C 12.1 °C 1015.5 hPa ESE 4.8 km/h 8 km/h 71% 0 mm
19:46 17.4 °C 12.3 °C 1015.5 hPa ESE 3.2 km/h 6.4 km/h 72% 0 mm
19:51 17.3 °C 12.2 °C 1015.5 hPa ESE 6.4 km/h 6.4 km/h 72% 0 mm
19:56 17.3 °C 12.2 °C 1015.5 hPa ESE 8 km/h 8 km/h 72% 0 mm
20:01 17.3 °C 12.2 °C 1015.1 hPa East 6.4 km/h 8 km/h 72% 0 mm
20:06 17.2 °C 12.1 °C 1015.1 hPa ESE 6.4 km/h 8 km/h 72% 0 mm
20:11 17.2 °C 12.1 °C 1015.1 hPa ESE 4.8 km/h 8 km/h 72% 0 mm
20:16 17.2 °C 12.1 °C 1015.1 hPa ESE 6.4 km/h 9.7 km/h 72% 0 mm
20:21 17.2 °C 12.1 °C 1015.1 hPa East 6.4 km/h 9.7 km/h 72% 0 mm
20:26 17.2 °C 12.1 °C 1015.1 hPa ESE 12.9 km/h 12.9 km/h 72% 0 mm
20:31 17.2 °C 11.9 °C 1015.1 hPa ESE 8 km/h 9.7 km/h 71% 0 mm
20:36 17.2 °C 11.9 °C 1015.1 hPa ESE 8 km/h 12.9 km/h 71% 0 mm
20:41 17.2 °C 11.9 °C 1015.5 hPa ESE 12.9 km/h 14.5 km/h 71% 0 mm
20:46 17.3 °C 11.8 °C 1015.5 hPa ESE 14.5 km/h 14.5 km/h 70% 0 mm
20:51 17.3 °C 11.8 °C 1015.1 hPa ESE 12.9 km/h 14.5 km/h 70% 0 mm
20:56 17.3 °C 11.8 °C 1015.1 hPa ESE 8 km/h 12.9 km/h 70% 0 mm
21:01 17.2 °C 11.7 °C 1015.1 hPa ESE 8 km/h 14.5 km/h 70% 0 mm
21:06 17.2 °C 11.7 °C 1015.1 hPa ESE 8 km/h 12.9 km/h 70% 0 mm
21:11 17.1 °C 11.6 °C 1015.1 hPa ESE 9.7 km/h 12.9 km/h 70% 0 mm
21:16 17.1 °C 11.6 °C 1015.1 hPa ESE 9.7 km/h 9.7 km/h 70% 0 mm
21:21 17.1 °C 11.6 °C 1015.1 hPa ESE 8 km/h 12.9 km/h 70% 0 mm
21:26 17.1 °C 11.6 °C 1015.1 hPa ESE 6.4 km/h 11.3 km/h 70% 0 mm
21:31 17 °C 11.5 °C 1014.8 hPa ESE 6.4 km/h 9.7 km/h 70% 0 mm
21:36 16.9 °C 11.4 °C 1015.1 hPa ESE 6.4 km/h 9.7 km/h 70% 0 mm
21:41 16.8 °C 11.3 °C 1014.8 hPa ESE 4.8 km/h 6.4 km/h 70% 0 mm
21:46 16.7 °C 11.4 °C 1014.8 hPa ESE 8 km/h 8 km/h 71% 0 mm
21:51 16.7 °C 11.4 °C 1014.8 hPa ESE 6.4 km/h 8 km/h 71% 0 mm
21:56 16.7 °C 11.4 °C 1014.8 hPa ESE 6.4 km/h 14.5 km/h 71% 0 mm
21:58 16.7 °C 11.4 °C 1014.8 hPa ESE 8 km/h 14.5 km/h 71% 0 mm
22:03 16.7 °C 11.4 °C 1014.4 hPa ESE 8 km/h 9.7 km/h 71% 0 mm
22:08 16.7 °C 11.4 °C 1014.8 hPa SE 8 km/h 11.3 km/h 71% 0 mm
22:13 16.6 °C 11.3 °C 1014.8 hPa ESE 8 km/h 9.7 km/h 71% 0 mm
22:18 16.5 °C 11.4 °C 1014.8 hPa ESE 8 km/h 8 km/h 72% 0 mm
22:23 16.4 °C 11.3 °C 1014.4 hPa ESE 8 km/h 9.7 km/h 72% 0 mm
22:28 16.4 °C 11.4 °C 1014.4 hPa ESE 11.3 km/h 11.3 km/h 72% 0 mm
22:33 16.5 °C 11.4 °C 1014.4 hPa ESE 6.4 km/h 11.3 km/h 72% 0 mm
22:38 16.4 °C 11.6 °C 1014.4 hPa ESE 6.4 km/h 9.7 km/h 73% 0 mm
22:43 16.5 °C 11.7 °C 1014.4 hPa ESE 6.4 km/h 12.9 km/h 73% 0 mm
22:48 16.6 °C 11.5 °C 1014.1 hPa ESE 9.7 km/h 14.5 km/h 72% 0 mm
22:53 16.6 °C 11.6 °C 1014.1 hPa ESE 11.3 km/h 12.9 km/h 72% 0 mm
22:58 16.6 °C 11.8 °C 1014.1 hPa East 6.4 km/h 12.9 km/h 73% 0 mm
23:03 16.6 °C 11.8 °C 1013.8 hPa East 8 km/h 14.5 km/h 73% 0 mm
23:08 16.7 °C 11.8 °C 1013.8 hPa East 8 km/h 19.3 km/h 73% 0 mm
23:13 16.7 °C 11.8 °C 1013.8 hPa ESE 11.3 km/h 17.7 km/h 73% 0 mm
23:18 16.7 °C 11.8 °C 1013.8 hPa ESE 12.9 km/h 19.3 km/h 73% 0 mm
23:23 16.8 °C 11.9 °C 1013.8 hPa ESE 11.3 km/h 17.7 km/h 73% 0 mm
23:28 16.8 °C 11.9 °C 1013.8 hPa ESE 12.9 km/h 16.1 km/h 73% 0 mm
23:33 16.8 °C 11.9 °C 1013.8 hPa ESE 14.5 km/h 20.9 km/h 73% 0 mm
23:38 16.9 °C 12 °C 1013.8 hPa ESE 11.3 km/h 19.3 km/h 73% 0 mm
23:43 16.9 °C 12.2 °C 1013.8 hPa SE 16.1 km/h 19.3 km/h 74% 0 mm
23:48 16.9 °C 12.3 °C 1013.8 hPa ESE 14.5 km/h 20.9 km/h 74% 0 mm
23:53 17 °C 12.3 °C 1013.8 hPa SE 16.1 km/h 22.5 km/h 74% 0 mm
23:58 17 °C 12.3 °C 1013.4 hPa ESE 22.5 km/h 22.5 km/h 74% 0 mm
Compliments of Weather Underground